FW6327 Weather Reports


time (UTC)temp
C
wind
direction
speed
KPH
gust
KPH
rain 1hr
cm
rain 24hr
cm
rain mn
cm
humidity
%
barometer
mb
20210723153531 16 197 1.6 6.4 0.03 2.21 0.38 90 1014.4
20210723153051 16 237 0.0 4.8 0.03 2.21 0.38 90 1014.4
20210723152606 16 240 1.6 4.8 0.00 2.18 0.36 88 1014.4
20210723152027 16 167 0.0 4.8 0.00 2.18 0.36 89 1014.4
20210723151551 16 33 0.0 4.8 0.00 2.18 0.36 90 1014.4
20210723151024 16 223 0.0 6.4 0.00 2.18 0.36 89 1014.4
20210723150527 16 192 3.2 6.4 0.00 2.18 0.36 89 1014.4
20210723150028 16 162 3.2 8.0 0.00 2.18 0.36 88 1014.5
20210723145527 16 182 0.0 6.4 0.00 2.18 0.36 90 1014.4
20210723145030 16 190 3.2 6.4 0.00 2.18 0.36 90 1014.5
20210723144522 16 132 1.6 4.8 0.00 2.18 0.36 89 1014.5
20210723144044 15 181 0.0 12.9 0.00 2.18 0.36 88 1014.5
20210723143522 15 123 4.8 12.9 0.00 2.18 0.36 88 1014.5
20210723143021 15 213 3.2 11.3 0.00 2.18 0.36 89 1014.5
20210723142520 15 170 4.8 11.3 0.00 2.18 0.36 87 1014.5
20210723142045 16 155 3.2 11.3 0.00 2.18 0.36 87 1014.4
20210723141525 16 200 4.8 11.3 0.00 2.18 0.36 89 1014.4
20210723141015 16 160 1.6 6.4 0.00 2.18 0.36 89 1014.2
20210723140535 15 177 3.2 6.4 0.00 2.18 0.36 88 1014.3
20210723140029 15 168 3.2 6.4 0.00 2.18 0.36 90 1014.2
20210723135511 15 171 3.2 6.4 0.00 2.18 0.36 91 1014.2
20210723135011 15 117 0.0 8.0 0.00 2.18 0.36 91 1014.2
20210723134009 15 181 1.6 8.0 0.00 2.18 0.36 91 1014.2
20210723133509 15 158 0.0 8.0 0.00 2.18 0.36 92 1014.1
20210723133029 15 59 1.6 8.0 0.00 2.18 0.36 92 1014.1
20210723132507 15 212 3.2 8.0 0.00 2.18 0.36 94 1014.1
20210723132002 14 152 3.2 8.0 0.00 2.18 0.36 94 1014.1
20210723131657 14 229 1.6 4.8 0.00 2.18 0.36 94 1014.1
20210723131506 14 214 1.6 4.8 0.00 2.18 0.36 94 1014.1
20210723131059 13 214 1.6 4.8 0.00 2.18 0.36 95 1014.2
20210723130559 13 220 1.6 6.4 0.00 2.18 0.36 95 1014.2
20210723125601 13 211 3.2 4.8 0.00 2.18 0.36 94 1014.1
20210723125105 13 159 0.0 4.8 0.00 2.18 0.36 94 1014.2
20210723124631 13 200 0.0 4.8 0.00 2.18 0.36 94 1014.1
20210723124056 13 196 1.6 8.0 0.00 2.18 0.36 95 1014.1
20210723123555 13 225 3.2 8.0 0.00 2.18 0.36 95 1014.1
20210723123121 13 194 1.6 8.0 0.00 2.18 0.36 95 1014.1
20210723122603 13 230 1.6 4.8 0.00 2.18 0.36 95 1014.1
20210723122053 13 208 1.6 4.8 0.00 2.18 0.36 95 1014.1
20210723121749 13 246 1.6 6.4 0.00 2.18 0.36 95 1014.0
20210723121051 13 188 3.2 6.4 0.00 2.18 0.36 95 1013.8
20210723120607 13 342 0.0 3.2 0.00 2.18 0.36 94 1013.9
20210723120312 13 80 0.0 4.8 0.00 2.18 0.36 94 1013.8
20210723115554 13 85 1.6 4.8 0.00 2.18 0.36 94 1013.6
20210723115048 13 245 1.6 4.8 0.00 2.18 0.36 94 1013.6
20210723114739 13 173 0.0 22.5 0.00 2.18 0.36 92 1013.6
20210723114045 13 78 12.9 22.5 0.00 2.18 0.36 91 1013.5
20210723113542 13 58 11.3 22.5 0.00 2.18 0.36 92 1013.4
20210723113201 13 53 9.7 20.9 0.00 2.18 0.36 92 1013.4
20210723112543 13 88 4.8 19.3 0.00 2.18 0.36 92 1013.3
20210723112038 13 24 6.4 19.3 0.00 2.18 0.36 91 1013.3
20210723111550 13 5 8.0 19.3 0.00 2.18 0.36 92 1013.2
20210723111041 13 89 6.4 19.3 0.00 2.18 0.36 92 1013.1
20210723110537 13 77 3.2 14.5 0.00 2.18 0.36 92 1013.0
20210723110116 13 84 3.2 14.5 0.00 2.18 0.36 93 1013.0
20210723105543 13 81 3.2 12.9 0.00 2.18 0.36 94 1013.0
20210723105044 12 117 0.0 8.0 0.00 2.18 0.36 95 1012.9
20210723104609 12 74 3.2 8.0 0.00 2.18 0.36 95 1012.9
20210723104035 13 203 1.6 8.0 0.03 2.18 0.36 94 1012.8
20210723103531 12 134 1.6 16.1 0.03 2.18 0.36 94 1012.7
20210723103100 12 51 8.0 16.1 0.03 2.18 0.36 93 1012.6
20210723102528 12 81 4.8 22.5 0.05 2.18 0.36 94 1012.6
20210723102027 12 84 3.2 22.5 0.05 2.18 0.36 94 1012.7
20210723101547 12 61 6.4 17.7 0.05 2.18 0.36 95 1012.5
20210723101029 12 30 3.2 17.7 0.05 2.18 0.36 95 1012.6
20210723100524 12 125 6.4 17.7 0.05 2.18 0.36 96 1012.5
20210723100122 12 38 4.8 12.9 0.05 2.18 0.36 96 1012.5
20210723095521 12 98 3.2 14.5 0.05 2.18 0.36 96 1012.3
20210723095036 12 123 4.8 14.5 0.05 2.18 0.36 96 1012.3
20210723094523 12 69 4.8 12.9 0.05 2.18 0.36 96 1012.3
20210723094025 12 202 1.6 17.7 0.05 2.16 0.33 96 1012.1
20210723093527 12 103 9.7 17.7 0.05 2.16 0.33 96 1012.0
20210723093116 12 65 1.6 6.4 0.05 2.16 0.33 97 1012.0
20210723092516 12 160 1.6 9.7 0.05 2.13 0.33 97 1012.0
20210723092014 12 88 3.2 9.7 0.05 2.13 0.33 97 1011.9
20210723091533 12 74 3.2 8.0 0.05 2.13 0.33 98 1011.8
20210723091013 12 246 1.6 6.4 0.08 2.13 0.33 98 1011.8
20210723090510 12 254 1.6 6.4 0.08 2.13 0.33 98 1011.7
20210723090038 12 227 3.2 8.0 0.05 2.11 0.30 98 1011.6
20210723085508 12 130 3.2 6.4 0.05 2.11 0.30 98 1011.4
20210723085016 12 257 1.6 8.0 0.05 2.11 0.30 98 1011.4
20210723084507 12 185 4.8 8.0 0.08 2.11 0.30 98 1011.3
20210723084006 12 249 1.6 4.8 0.05 2.11 0.28 98 1011.3
20210723083515 12 249 0.0 4.8 0.05 2.11 0.28 98 1011.3
20210723083021 12 242 1.6 4.8 0.08 2.11 0.28 98 1011.2
20210723082504 12 242 1.6 4.8 0.05 2.08 0.25 98 1011.2
20210723082005 12 175 0.0 4.8 0.05 2.08 0.25 98 1011.1
20210723081645 12 180 1.6 4.8 0.08 2.08 0.25 98 1011.1
20210723081059 12 267 0.0 3.2 0.05 2.06 0.23 98 1011.0
20210723080614 12 267 1.6 4.8 0.05 2.06 0.23 98 1010.9
20210723080148 13 242 3.2 6.4 0.08 2.06 0.23 98 1010.9
20210723075557 12 207 3.2 6.4 0.08 2.06 0.23 98 1010.8
20210723075056 13 227 3.2 6.4 0.08 2.06 0.23 98 1010.7
20210723074754 13 245 3.2 6.4 0.08 2.03 0.23 98 1010.6
20210723074107 13 251 3.2 6.4 0.08 2.03 0.23 98 1010.7
20210723073607 13 209 1.6 6.4 0.08 2.03 0.23 98 1010.7
20210723073132 13 227 3.2 6.4 0.08 2.03 0.20 98 1010.8
20210723072553 13 213 3.2 4.8 0.08 2.03 0.20 98 1010.7
20210723072051 13 213 0.0 3.2 0.08 2.03 0.20 98 1010.7
20210723071647 13 213 0.0 6.4 0.05 2.01 0.18 98 1010.9
20210723071049 13 242 3.2 8.0 0.05 2.01 0.18 98 1010.8
20210723070558 13 196 3.2 6.4 0.05 2.01 0.18 98 1010.9
20210723070112 13 207 1.6 4.8 0.05 1.98 0.15 98 1010.9
20210723065546 13 207 1.6 4.8 0.05 1.98 0.15 98 1010.8
20210723065103 13 207 1.6 6.4 0.05 1.96 0.15 98 1010.6
20210723064618 13 209 3.2 6.4 0.05 1.96 0.15 98 1010.7
20210723064116 13 240 4.8 8.0 0.05 1.96 0.15 98 1010.5
20210723063542 13 226 3.2 8.0 0.05 1.96 0.15 98 1010.6
20210723063106 13 232 1.6 4.8 0.05 1.93 0.13 98 1010.5
20210723062540 13 220 0.0 4.8 0.05 1.93 0.13 98 1010.5
20210723062039 13 221 0.0 4.8 0.05 1.93 0.13 98 1010.5
20210723061623 13 213 0.0 6.4 0.05 1.93 0.13 98 1010.6
20210723061040 13 189 3.2 6.4 0.05 1.93 0.13 98 1010.6
20210723060605 13 223 0.0 4.8 0.05 1.93 0.13 98 1010.6
20210723060224 13 223 0.0 4.8 0.05 1.93 0.10 98 1010.4
20210723055545 13 246 0.0 3.2 0.05 1.93 0.10 98 1010.5
20210723055045 13 246 0.0 1.6 0.05 1.93 0.10 98 1010.6
20210723054607 13 246 0.0 1.6 0.05 1.93 0.10 98 1010.6
20210723054033 13 246 0.0 1.6 0.05 1.93 0.10 98 1010.4
20210723053535 13 246 0.0 4.8 0.05 1.91 0.08 98 1010.4
20210723053216 13 246 0.0 4.8 0.05 1.91 0.08 98 1010.5
20210723052532 13 235 0.0 1.6 0.05 1.91 0.08 98 1010.4
20210723052033 13 235 0.0 1.6 0.05 1.91 0.08 98 1010.3
20210723051610 13 235 0.0 1.6 0.05 1.91 0.08 98 1010.3
20210723051028 13 235 0.0 1.6 0.03 1.88 0.05 98 1010.2
20210723050534 13 235 0.0 1.6 0.03 1.88 0.05 98 1010.1
20210723050045 13 235 0.0 1.6 0.05 1.88 0.05 98 1010.2
20210723045531 13 235 0.0 3.2 0.05 1.88 0.05 98 1010.1
20210723045025 13 235 0.0 8.0 0.05 1.88 0.05 98 1010.1
20210723044554 13 235 1.6 8.0 0.03 1.85 0.05 98 1010.0
20210723044024 13 236 1.6 6.4 0.03 1.85 0.05 98 1009.9
20210723043531 13 239 1.6 6.4 0.03 1.85 0.05 98 1010.0
20210723043107 13 200 1.6 6.4 0.03 1.85 0.05 98 1009.9
20210723042525 13 239 1.6 4.8 0.03 1.85 0.05 98 1010.0
20210723042026 13 215 3.2 6.4 0.03 1.85 0.05 97 1010.0
20210723041542 13 201 1.6 6.4 0.03 1.85 0.05 98 1010.1
20210723041026 13 190 3.2 6.4 0.05 1.85 0.05 97 1010.1
20210723040554 13 190 3.2 6.4 0.05 1.85 0.05 97 1010.2
20210723040026 13 198 1.6 4.8 0.03 1.83 0.03 97 1010.2
20210723035516 13 275 0.0 8.0 0.03 1.83 0.03 97 1010.2
20210723035023 13 235 1.6 8.0 0.05 1.83 0.03 97 1010.1
20210723034514 13 146 0.0 8.0 0.05 1.83 0.03 97 1010.2
20210723034017 13 191 1.6 8.0 0.05 1.83 0.03 97 1010.2
20210723033512 13 176 1.6 6.4 0.05 1.83 0.03 97 1010.3
20210723033013 13 180 0.0 4.8 0.05 1.83 0.03 97 1010.3
20210723032510 14 186 0.0 4.8 0.05 1.83 0.03 97 1010.4
20210723032009 14 171 1.6 3.2 0.05 1.83 0.03 98 1010.4
20210723031511 14 170 0.0 1.6 0.03 1.83 0.00 98 1010.4
20210723031012 14 170 0.0 1.6 0.05 1.83 0.00 97 1010.4
20210723030512 14 170 0.0 1.6 0.05 1.83 0.00 97 1010.2
20210723030047 14 170 0.0 3.2 0.05 1.83 0.00 97 1010.3
20210723025526 14 170 0.0 3.2 0.05 1.83 1.83 98 1010.2
20210723025004 14 170 0.0 6.4 0.03 1.80 1.80 97 1010.1
20210723024508 14 170 1.6 6.4 0.03 1.80 1.80 97 1010.1
20210723023503 14 184 0.0 4.8 0.03 1.80 1.80 98 1010.0
20210723023006 14 178 1.6 4.8 0.03 1.80 1.80 97 1010.1
20210723022602 14 219 3.2 4.8 0.03 1.80 1.80 97 1010.1
20210723022120 14 225 1.6 3.2 0.05 1.80 1.80 97 1010.2
20210723021805 14 225 0.0 4.8 0.05 1.80 1.80 98 1010.2
20210723021058 14 225 0.0 8.0 0.03 1.78 1.78 98 1010.2
20210723020556 14 195 3.2 8.0 0.03 1.78 1.78 97 1010.2
20210723020113 15 211 1.6 4.8 0.03 1.78 1.78 98 1010.3
20210723015555 15 217 1.6 6.4 0.03 1.78 1.78 97 1010.3
20210723015121 15 205 3.2 6.4 0.03 1.78 1.78 97 1010.3
20210723014659 15 217 1.6 4.8 0.03 1.78 1.78 98 1010.3
20210723014102 15 217 1.6 4.8 0.05 1.78 1.78 98 1010.3
20210723013552 15 217 0.0 3.2 0.05 1.78 1.78 98 1010.4
20210723013155 15 217 0.0 4.8 0.05 1.78 1.78 97 1010.3
20210723012549 15 217 0.0 4.8 0.05 1.78 1.78 97 1010.3
20210723012519 15 216 0.0 4.8 0.05 1.78 1.78 97 1010.3
20210723012103 15 216 1.6 4.8 0.05 1.75 1.75 97 1010.3
20210723011653 15 175 1.6 4.8 0.05 1.75 1.75 97 1010.3
20210723011046 15 163 0.0 3.2 0.05 1.75 1.75 97 1010.3
20210723010544 15 151 0.0 1.6 0.05 1.75 1.75 98 1010.4
20210723005550 15 151 0.0 1.6 0.05 1.75 1.75 97 1010.3
20210723005043 15 151 0.0 3.2 0.05 1.75 1.75 97 1010.3
20210723004656 15 151 1.6 3.2 0.05 1.75 1.75 97 1010.3
20210723004041 15 125 0.0 3.2 0.03 1.75 1.75 97 1010.2
20210723003542 15 125 0.0 3.2 0.00 1.73 1.73 97 1010.2
20210723003156 15 125 0.0 3.2 0.00 1.73 1.73 97 1010.1
20210723002604 15 80 0.0 3.2 0.00 1.73 1.73 97 1010.1
20210723002038 15 80 0.0 1.6 0.00 1.73 1.73 97 1009.9
20210723001724 15 80 0.0 3.2 0.00 1.73 1.73 97 1009.8
20210723001037 16 80 0.0 3.2 0.00 1.73 1.73 97 1009.7
20210723000612 16 78 0.0 3.2 0.00 1.73 1.73 97 1009.8
20210723000056 16 76 0.0 3.2 0.00 1.73 1.73 96 1009.7
20210722191644 16 217 0.0 1.6 0.41 1.50 1.42 97 1008.6
20210722191039 16 217 0.0 0.0 0.51 1.45 1.40 97 1008.7
20210722190539 17 217 0.0 1.6 0.53 1.42 1.37 97 1008.8
20210722190056 17 217 0.0 1.6 0.64 1.42 1.37 97 1008.8
20210722185537 17 217 0.0 1.6 0.61 1.42 1.35 97 1009.0
20210722185035 17 217 0.0 1.6 0.61 1.37 1.30 97 1009.0
20210722184620 17 217 0.0 1.6 0.58 1.37 1.27 97 1009.0
20210722184051 17 217 0.0 1.6 0.56 1.32 1.24 97 1008.8
20210722183545 17 217 0.0 3.2 0.51 1.27 1.19 97 1008.6
20210722183116 17 217 0.0 4.8 0.51 1.27 1.17 97 1008.7
20210722182533 17 183 1.6 4.8 0.48 1.22 1.14 97 1008.8
20210722182041 17 183 0.0 4.8 0.43 1.17 1.09 97 1008.6
20210722181602 17 183 1.6 6.4 0.33 1.09 0.99 97 1008.8
20210722181042 17 173 1.6 6.4 0.28 0.99 0.89 97 1008.7
20210722180549 17 212 1.6 12.9 0.23 0.91 0.84 97 1008.7
20210722180037 17 243 4.8 12.9 0.15 0.79 0.71 97 1008.7
20210722175532 17 193 6.4 11.3 0.20 0.79 0.71 96 1008.7
20210722175032 17 5 0.0 6.4 0.20 0.79 0.71 97 1008.4
20210722174544 17 59 0.0 4.8 0.23 0.79 0.71 97 1008.4
20210722174036 17 63 1.6 4.8 0.25 0.76 0.69 96 1008.4
20210722173524 17 50 0.0 3.2 0.33 0.76 0.69 97 1008.5
20210722173038 17 50 0.0 3.2 0.33 0.71 0.66 96 1008.5
20210722172522 17 50 0.0 4.8 0.33 0.71 0.66 96 1008.6
20210722172021 17 50 1.6 4.8 0.33 0.71 0.66 96 1008.7
20210722171550 17 63 1.6 3.2 0.38 0.71 0.66 96 1008.7
20210722171022 17 63 0.0 3.2 0.43 0.71 0.61 96 1008.8
20210722170523 17 63 0.0 4.8 0.43 0.69 0.61 96 1008.8
20210722170035 17 63 0.0 6.4 0.38 0.64 0.56 96 1008.8
20210722165536 17 57 3.2 8.0 0.33 0.61 0.51 96 1008.9
20210722165016 17 41 4.8 8.0 0.33 0.58 0.51 96 1008.9
20210722164521 17 229 3.2 4.8 0.30 0.56 0.48 97 1009.3
20210722164018 17 229 0.0 4.8 0.23 0.48 0.41 97 1009.2
20210722163517 17 229 0.0 4.8 0.20 0.43 0.36 97 1009.5
20210722163053 17 233 3.2 6.4 0.20 0.43 0.33 97 1009.6
20210722162514 17 160 1.6 6.4 0.28 0.41 0.33 96 1009.3
20210722162012 18 69 3.2 6.4 0.33 0.41 0.33 96 1009.1
20210722161521 18 51 1.6 4.8 0.25 0.33 0.25 96 1009.1
20210722161029 18 46 1.6 4.8 0.20 0.28 0.20 96 1009.4
20210722160508 18 15 0.0 3.2 0.18 0.25 0.18 96 1009.4
20210722160029 18 15 0.0 1.6 0.18 0.25 0.18 97 1009.4
20210722155512 18 15 0.0 1.6 0.18 0.25 0.18 97 1009.5
20210722155009 18 15 0.0 3.2 0.18 0.25 0.18 97 1009.6
20210722154508 18 15 0.0 3.2 0.18 0.25 0.18 97 1009.7
20210722154007 18 15 1.6 4.8 0.15 0.23 0.15 97 1009.6